TimeMDT,TemperatureF,Dew PointF,Humidity,Sea Level PressureIn,VisibilityMPH,Wind Direction,Wind SpeedMPH,Gust SpeedMPH,PrecipitationIn,Events,Conditions,WindDirDegrees,DateUTC
12:51 AM,52.0,28.9,41,29.91,-9999.0,SE,3.5,-,N/A,,Unknown,140,2013-07-20 06:51:00
1:51 AM,46.0,28.9,51,29.93,-9999.0,SE,3.5,-,N/A,,Unknown,130,2013-07-20 07:51:00
2:51 AM,44.1,30.0,58,29.94,-9999.0,Calm,Calm,-,N/A,,Unknown,0,2013-07-20 08:51:00
3:51 AM,41.0,28.9,62,29.95,-9999.0,Calm,Calm,-,N/A,,Unknown,0,2013-07-20 09:51:00
4:51 AM,41.0,28.9,62,29.95,-9999.0,SE,3.5,-,N/A,,Unknown,130,2013-07-20 10:51:00
5:51 AM,37.9,28.9,70,29.96,-9999.0,Calm,Calm,-,N/A,,Unknown,0,2013-07-20 11:51:00
6:51 AM,37.0,28.9,73,29.99,-9999.0,Calm,Calm,-,N/A,,Unknown,0,2013-07-20 12:51:00
7:51 AM,45.0,32.0,60,29.97,-9999.0,Calm,Calm,-,N/A,,Unknown,0,2013-07-20 13:51:00
8:51 AM,54.0,34.0,47,29.96,-9999.0,Calm,Calm,-,N/A,,Unknown,0,2013-07-20 14:51:00
9:51 AM,61.0,35.1,38,29.96,-9999.0,North,3.5,-,N/A,,Unknown,350,2013-07-20 15:51:00
10:51 AM,71.1,37.0,29,29.91,-9999.0,Calm,Calm,-,N/A,,Unknown,0,2013-07-20 16:51:00
11:51 AM,81.0,33.1,18,29.86,-9999.0,Variable,5.8,-,N/A,,Unknown,0,2013-07-20 17:51:00
12:51 PM,82.9,25.0,12,29.84,-9999.0,NW,10.4,27.6,N/A,,Unknown,320,2013-07-20 18:51:00
1:51 PM,84.9,19.0,9,29.85,-9999.0,WNW,17.3,25.3,N/A,,Unknown,300,2013-07-20 19:51:00
2:51 PM,86.0,21.0,9,29.84,-9999.0,WNW,12.7,20.7,N/A,,Unknown,300,2013-07-20 20:51:00
3:51 PM,87.1,21.9,9,29.83,-9999.0,NW,12.7,18.4,N/A,,Unknown,320,2013-07-20 21:51:00
4:51 PM,86.0,19.9,9,29.82,-9999.0,NW,11.5,19.6,N/A,,Unknown,320,2013-07-20 22:51:00
5:51 PM,82.9,21.9,11,29.83,-9999.0,NW,6.9,19.6,N/A,,Unknown,310,2013-07-20 23:51:00
6:51 PM,82.9,21.0,10,29.82,-9999.0,Variable,6.9,-,N/A,,Unknown,0,2013-07-21 00:51:00
7:51 PM,79.0,21.9,12,29.81,-9999.0,WNW,5.8,-,N/A,,Unknown,290,2013-07-21 01:51:00
8:51 PM,66.9,28.9,24,29.82,-9999.0,Calm,Calm,-,N/A,,Unknown,0,2013-07-21 02:51:00
9:51 PM,60.1,28.0,30,29.83,-9999.0,Calm,Calm,-,N/A,,Unknown,0,2013-07-21 03:51:00
10:51 PM,53.1,28.0,38,29.84,-9999.0,Calm,Calm,-,N/A,,Unknown,0,2013-07-21 04:51:00
11:51 PM,52.0,27.0,38,29.81,-9999.0,Calm,Calm,-,N/A,,Unknown,0,2013-07-21 05:51:00